{"data":{"norad_id":67630,"epoch":"2026-08-15T14:05:18.160800Z","epoch_age_seconds":3171841,"freshness":"OLD","line1":"1 67630U 26020P   26227.58701575  .08844475  90301-5  34220-2 0  9990","line2":"2 67630  42.9954 314.5807 0005937 318.9679  41.0761 16.22993384  6408","mean_motion":16.22993384,"eccentricity":0.0005937,"inclination_deg":42.9954,"raan_deg":314.5807,"arg_perigee_deg":318.9679,"mean_anomaly_deg":41.0761,"bstar":0.003422,"rev_number":640,"period_min":88.724945782034,"perigee_km":207.52480426755,"apogee_km":215.34926447597,"semimajor_km":6589.5740343718,"source":"CELESTRAK","updated_at":"2026-08-16T09:00:52.941769Z"}}